User: anonymous   Login
Location: Unspecified
(0.0000°N, 0.0000°E)
Time: 22:17:43
(UTC+00:00)
Language:

NAVSTAR 64 (USA 206) - Orbit

View from above orbital plane
View from above orbital plane
View from above satellite
View from above satellite

Ground track
Ground track

The orbit data is extracted from the following two-line orbital elements,

1 35752U 09043A   16337.30465508  .00000073  00000-0  00000+0 0  9998
2 35752  54.2336 167.5004 0047798  29.7146 168.3073  2.00566877 53461
Epoch (UTC): 02 December 2016 07:18:42
Eccentricity: 0.0047798
inclination: 54.2336°
perigee height: 20055 km
apogee height: 20308 km
right ascension of ascending node: 167.5004°
argument of perigee: 29.7146°
revolutions per day: 2.00566877
mean anomaly at epoch: 168.3073°
orbit number at epoch: 5346

The dashed part of the orbit path shows where the satellite is in the earth's shadow,  

DLR